TVS472 LKTB-LZKZ

Flight info

Callsign TVS472
Flight time 0h 38m
Altitude 23000
Route ODNEM M748 NIT N190 TAKOS
Aircraft A20N/M-SDE2E3FGHIRWXY/LB1

Departure

Time 2026-05-07 19:31
Airport Brno-Tuřany Airport (LKTB)

Arrival

Time 2026-05-07 20:10
Airport Košice International Airport (LZKZ)
Time Latitude Longitude Altitude Speed Heading
2026-05-07 19:23 49.15369 16.69247 784 ft 0 kts 146°
2026-05-07 19:24 49.15360 16.69255 783 ft 3 kts 155°
2026-05-07 19:25 49.15337 16.69233 783 ft 5 kts 267°
2026-05-07 19:25 49.15341 16.69182 784 ft 4 kts 278°
2026-05-07 19:25 49.15345 16.69135 784 ft 5 kts 278°
2026-05-07 19:25 49.15351 16.69066 785 ft 9 kts 277°
2026-05-07 19:26 49.15362 16.68938 785 ft 15 kts 277°
2026-05-07 19:26 49.15378 16.68751 785 ft 19 kts 278°
2026-05-07 19:26 49.15395 16.68544 784 ft 20 kts 278°
2026-05-07 19:26 49.15414 16.68327 782 ft 20 kts 278°
2026-05-07 19:27 49.15434 16.68095 776 ft 23 kts 278°
2026-05-07 19:27 49.15454 16.67867 771 ft 19 kts 278°
2026-05-07 19:27 49.15467 16.67710 768 ft 10 kts 277°
2026-05-07 19:27 49.15448 16.67634 766 ft 6 kts 195°
2026-05-07 19:28 49.15443 16.67633 766 ft 0 kts 185°
2026-05-07 19:29 49.15385 16.67623 766 ft 14 kts 188°
2026-05-07 19:30 49.15302 16.67606 766 ft 7 kts 186°
2026-05-07 19:30 49.15282 16.67641 767 ft 0 kts 95°
2026-05-07 19:30 49.15269 16.67797 769 ft 48 kts 98°
2026-05-07 19:31 49.15191 16.68686 779 ft 119 kts 98°
2026-05-07 19:31 49.15057 16.70269 829 ft 172 kts 98°
2026-05-07 19:31 49.14906 16.72041 1526 ft 172 kts 97°
2026-05-07 19:31 49.14769 16.73858 2256 ft 176 kts 95°
2026-05-07 19:32 49.14606 16.75686 2951 ft 171 kts 99°
2026-05-07 19:32 49.14357 16.77438 3504 ft 170 kts 103°
2026-05-07 19:32 49.14075 16.79170 4003 ft 175 kts 105°
2026-05-07 19:32 49.13541 16.80861 4588 ft 187 kts 135°
2026-05-07 19:33 49.12457 16.82106 4954 ft 208 kts 149°
2026-05-07 19:33 49.11158 16.83350 5173 ft 234 kts 148°
2026-05-07 19:33 49.09789 16.84803 5197 ft 240 kts 144°
2026-05-07 19:33 49.08473 16.86346 5199 ft 241 kts 142°
2026-05-07 19:34 49.07142 16.88003 5365 ft 248 kts 141°
2026-05-07 19:34 49.05835 16.89688 6193 ft 250 kts 141°
2026-05-07 19:34 49.04538 16.91390 7181 ft 247 kts 141°
2026-05-07 19:34 49.03247 16.93094 8014 ft 250 kts 141°
2026-05-07 19:35 49.01928 16.94841 8792 ft 254 kts 141°
2026-05-07 19:35 49.00604 16.96595 9540 ft 259 kts 141°
2026-05-07 19:35 48.99238 16.98403 10299 ft 263 kts 141°
2026-05-07 19:35 48.97858 17.00230 11020 ft 268 kts 141°
2026-05-07 19:36 48.96413 17.02141 11467 ft 284 kts 141°
2026-05-07 19:36 48.94882 17.04163 11872 ft 302 kts 141°
2026-05-07 19:36 48.93256 17.06313 12249 ft 320 kts 141°
2026-05-07 19:36 48.91542 17.08581 12661 ft 335 kts 141°
2026-05-07 19:37 48.89758 17.10938 13116 ft 349 kts 141°
2026-05-07 19:37 48.87875 17.13421 13474 ft 365 kts 140°
2026-05-07 19:37 48.85930 17.16013 13820 ft 380 kts 139°
2026-05-07 19:37 48.84047 17.18811 14458 ft 385 kts 135°
2026-05-07 19:38 48.82207 17.21739 15347 ft 383 kts 135°
2026-05-07 19:38 48.80384 17.24652 16074 ft 385 kts 135°
2026-05-07 19:38 48.78508 17.27640 16379 ft 398 kts 135°
2026-05-07 19:38 48.76577 17.30706 16650 ft 411 kts 135°
2026-05-07 19:39 48.74560 17.33903 16968 ft 422 kts 135°
2026-05-07 19:39 48.72545 17.37098 17607 ft 423 kts 135°
2026-05-07 19:39 48.70521 17.40308 18405 ft 420 kts 136°
2026-05-07 19:39 48.68542 17.43439 19184 ft 418 kts 136°
2026-05-07 19:40 48.66525 17.46627 19977 ft 415 kts 136°
2026-05-07 19:40 48.64562 17.49719 20792 ft 411 kts 136°
2026-05-07 19:40 48.62587 17.52830 21620 ft 407 kts 137°
2026-05-07 19:40 48.60657 17.55867 22381 ft 403 kts 137°
2026-05-07 19:41 48.58734 17.58889 22845 ft 401 kts 137°
2026-05-07 19:41 48.56787 17.61941 22988 ft 399 kts 137°
2026-05-07 19:41 48.54893 17.64907 22990 ft 398 kts 137°
2026-05-07 19:41 48.52959 17.67930 22987 ft 397 kts 138°
2026-05-07 19:42 48.51054 17.70909 22986 ft 397 kts 138°
2026-05-07 19:42 48.49132 17.73910 22990 ft 397 kts 138°
2026-05-07 19:42 48.47230 17.76876 22986 ft 397 kts 138°
2026-05-07 19:42 48.45318 17.79858 22996 ft 396 kts 138°
2026-05-07 19:43 48.43406 17.82833 22995 ft 397 kts 138°
2026-05-07 19:43 48.41497 17.85803 22989 ft 397 kts 138°
2026-05-07 19:43 48.39584 17.88775 22988 ft 396 kts 138°
2026-05-07 19:43 48.37667 17.91753 22988 ft 396 kts 139°
2026-05-07 19:44 48.35744 17.94734 22989 ft 396 kts 139°
2026-05-07 19:44 48.33829 17.97694 22986 ft 396 kts 139°
2026-05-07 19:44 48.31941 18.00658 22986 ft 398 kts 135°
2026-05-07 19:44 48.30456 18.04228 22973 ft 409 kts 116°
2026-05-07 19:45 48.29829 18.08404 22976 ft 419 kts 97°
2026-05-07 19:45 48.30129 18.12784 22990 ft 428 kts 81°
2026-05-07 19:45 48.30828 18.17104 22985 ft 428 kts 79°
2026-05-07 19:45 48.31553 18.21433 22990 ft 428 kts 79°
2026-05-07 19:46 48.32267 18.25786 22982 ft 427 kts 80°
2026-05-07 19:46 48.32951 18.30059 22980 ft 428 kts 80°
2026-05-07 19:46 48.33637 18.34427 22979 ft 428 kts 80°
2026-05-07 19:46 48.34305 18.38734 22986 ft 428 kts 80°
2026-05-07 19:47 48.34980 18.43106 22983 ft 428 kts 81°
2026-05-07 19:47 48.35641 18.47413 22980 ft 428 kts 81°
2026-05-07 19:47 48.36312 18.51778 22984 ft 428 kts 81°
2026-05-07 19:47 48.36983 18.56157 23039 ft 431 kts 81°
2026-05-07 19:48 48.37651 18.60527 23590 ft 433 kts 81°
2026-05-07 19:48 48.38321 18.64899 24356 ft 428 kts 81°
2026-05-07 19:48 48.38977 18.69202 24839 ft 426 kts 82°
2026-05-07 19:48 48.39634 18.73543 24979 ft 425 kts 82°
2026-05-07 19:49 48.40282 18.77834 24979 ft 425 kts 82°
2026-05-07 19:49 48.40935 18.82167 24981 ft 425 kts 82°
2026-05-07 19:49 48.41584 18.86498 24980 ft 425 kts 82°
2026-05-07 19:49 48.42236 18.90848 24973 ft 425 kts 82°
2026-05-07 19:50 48.42879 18.95153 24715 ft 426 kts 82°
2026-05-07 19:50 48.43524 18.99472 24456 ft 426 kts 82°
2026-05-07 19:50 48.44170 19.03820 24191 ft 427 kts 82°
2026-05-07 19:50 48.44815 19.08174 23951 ft 426 kts 82°
2026-05-07 19:51 48.45423 19.12488 23724 ft 425 kts 84°
2026-05-07 19:51 48.45951 19.16865 23517 ft 425 kts 85°
2026-05-07 19:51 48.46461 19.21252 23315 ft 425 kts 85°
2026-05-07 19:51 48.46966 19.25642 23140 ft 425 kts 85°
2026-05-07 19:52 48.47464 19.29970 22980 ft 425 kts 84°
2026-05-07 19:52 48.47970 19.34366 22825 ft 426 kts 84°
2026-05-07 19:52 48.48472 19.38735 22688 ft 426 kts 84°
2026-05-07 19:52 48.48981 19.43157 22570 ft 426 kts 84°
2026-05-07 19:53 48.49479 19.47522 22383 ft 423 kts 84°
2026-05-07 19:53 48.49968 19.51830 21803 ft 423 kts 84°
2026-05-07 19:53 48.50463 19.56212 20962 ft 427 kts 84°
2026-05-07 19:53 48.50962 19.60629 20286 ft 430 kts 83°
2026-05-07 19:54 48.51465 19.65084 19697 ft 432 kts 84°
2026-05-07 19:54 48.51967 19.69534 19134 ft 432 kts 84°
2026-05-07 19:54 48.52466 19.73982 18620 ft 433 kts 84°
2026-05-07 19:54 48.52961 19.78408 18151 ft 434 kts 83°
2026-05-07 19:55 48.53460 19.82872 17700 ft 435 kts 83°
2026-05-07 19:55 48.53957 19.87346 17186 ft 434 kts 83°
2026-05-07 19:55 48.54454 19.91829 16542 ft 430 kts 83°
2026-05-07 19:55 48.54939 19.96223 15964 ft 425 kts 83°
2026-05-07 19:56 48.55414 20.00545 15419 ft 420 kts 83°
2026-05-07 19:56 48.55890 20.04892 14876 ft 414 kts 82°
2026-05-07 19:56 48.56351 20.09118 14357 ft 409 kts 82°
2026-05-07 19:56 48.56802 20.13275 13849 ft 404 kts 82°
2026-05-07 19:57 48.57251 20.17432 13333 ft 398 kts 82°
2026-05-07 19:57 48.57691 20.21509 12827 ft 394 kts 82°
2026-05-07 19:57 48.58008 20.25555 12318 ft 388 kts 88°
2026-05-07 19:57 48.57956 20.29572 11814 ft 377 kts 97°
2026-05-07 19:58 48.57629 20.33386 11320 ft 356 kts 100°
2026-05-07 19:58 48.57262 20.36943 10880 ft 336 kts 100°
2026-05-07 19:58 48.56907 20.40312 10694 ft 318 kts 100°
2026-05-07 19:58 48.56570 20.43533 10535 ft 301 kts 100°
2026-05-07 19:59 48.56255 20.46571 10394 ft 290 kts 100°
2026-05-07 19:59 48.55948 20.49553 10263 ft 293 kts 101°
2026-05-07 19:59 48.55632 20.52614 10139 ft 294 kts 100°
2026-05-07 19:59 48.55321 20.55636 10016 ft 294 kts 100°
2026-05-07 20:00 48.55007 20.58694 9720 ft 293 kts 100°
2026-05-07 20:00 48.54695 20.61721 9411 ft 291 kts 100°
2026-05-07 20:00 48.54386 20.64718 9088 ft 290 kts 100°
2026-05-07 20:00 48.54078 20.67696 8771 ft 289 kts 101°
2026-05-07 20:01 48.53769 20.70674 8450 ft 287 kts 101°
2026-05-07 20:01 48.53460 20.73648 8139 ft 286 kts 101°
2026-05-07 20:01 48.53156 20.76575 7828 ft 285 kts 101°
2026-05-07 20:01 48.52848 20.79522 7519 ft 282 kts 100°
2026-05-07 20:02 48.52549 20.82386 7252 ft 278 kts 101°
2026-05-07 20:02 48.52249 20.85263 6980 ft 274 kts 101°
2026-05-07 20:02 48.51955 20.88054 6576 ft 268 kts 100°
2026-05-07 20:02 48.51669 20.90767 6060 ft 265 kts 100°
2026-05-07 20:03 48.51379 20.93483 5463 ft 264 kts 100°
2026-05-07 20:03 48.51090 20.96206 4899 ft 261 kts 100°
2026-05-07 20:03 48.50809 20.98851 4626 ft 253 kts 99°
2026-05-07 20:03 48.50536 21.01423 4376 ft 248 kts 99°
2026-05-07 20:04 48.50232 21.03952 4151 ft 243 kts 103°
2026-05-07 20:04 48.49866 21.06398 3932 ft 238 kts 103°
2026-05-07 20:04 48.49491 21.08835 3676 ft 235 kts 103°
2026-05-07 20:04 48.49132 21.11175 3632 ft 222 kts 103°
2026-05-07 20:05 48.48795 21.13388 3602 ft 217 kts 103°
2026-05-07 20:05 48.48483 21.15608 3554 ft 217 kts 94°
2026-05-07 20:05 48.48793 21.17765 3441 ft 209 kts 50°
2026-05-07 20:05 48.49923 21.18868 3515 ft 190 kts
2026-05-07 20:06 48.51174 21.19119 3471 ft 174 kts
2026-05-07 20:06 48.52355 21.19368 3230 ft 169 kts
2026-05-07 20:06 48.53468 21.19663 3010 ft 159 kts
2026-05-07 20:06 48.54520 21.19996 2786 ft 149 kts
2026-05-07 20:07 48.55508 21.20335 2577 ft 143 kts
2026-05-07 20:07 48.56486 21.20677 2395 ft 143 kts 10°
2026-05-07 20:07 48.57452 21.21017 2216 ft 142 kts 10°
2026-05-07 20:07 48.58403 21.21351 2039 ft 142 kts 10°
2026-05-07 20:08 48.59367 21.21695 1850 ft 142 kts 10°
2026-05-07 20:08 48.60328 21.22057 1677 ft 141 kts 11°
2026-05-07 20:08 48.61281 21.22399 1502 ft 141 kts 10°
2026-05-07 20:08 48.62235 21.22709 1307 ft 141 kts
2026-05-07 20:09 48.63191 21.23024 1119 ft 141 kts 12°
2026-05-07 20:09 48.64144 21.23366 933 ft 139 kts 12°
2026-05-07 20:09 48.65082 21.23695 747 ft 137 kts 12°
2026-05-07 20:10 48.66165 21.24067 745 ft 39 kts 12°
2026-05-07 20:10 48.66323 21.24141 743 ft 11 kts 17°
2026-05-07 20:10 48.66351 21.24136 744 ft 5 kts 226°
2026-05-07 20:10 48.66293 21.24111 744 ft 14 kts 192°
2026-05-07 20:11 48.66177 21.24072 745 ft 17 kts 193°
2026-05-07 20:11 48.66059 21.24029 744 ft 17 kts 193°
2026-05-07 20:11 48.65938 21.24005 743 ft 15 kts 154°
2026-05-07 20:11 48.65890 21.24155 741 ft 15 kts 101°
2026-05-07 20:12 48.65882 21.24212 741 ft 0 kts 103°
2026-05-07 20:12 48.65881 21.24219 741 ft 4 kts 103°
2026-05-07 20:13 48.65882 21.24288 740 ft 7 kts 64°
2026-05-07 20:13 48.65940 21.24337 740 ft 15 kts 14°
2026-05-07 20:13 48.66088 21.24389 740 ft 24 kts 13°
2026-05-07 20:13 48.66255 21.24447 740 ft 24 kts 12°
2026-05-07 20:14 48.66417 21.24503 741 ft 23 kts 15°
2026-05-07 20:14 48.66568 21.24556 743 ft 21 kts 11°
2026-05-07 20:14 48.66722 21.24612 743 ft 27 kts 13°
2026-05-07 20:14 48.66902 21.24674 744 ft 25 kts 12°
2026-05-07 20:15 48.67066 21.24733 746 ft 20 kts 13°
2026-05-07 20:15 48.67162 21.24740 746 ft 12 kts 325°
2026-05-07 20:15 48.67196 21.24614 747 ft 12 kts 283°
2026-05-07 20:15 48.67232 21.24382 751 ft 31 kts 283°
2026-05-07 20:16 48.67279 21.24073 753 ft 28 kts 283°
2026-05-07 20:16 48.67301 21.23931 754 ft 5 kts 287°
2026-05-07 20:16 48.67326 21.23898 755 ft 5 kts 334°
2026-05-07 20:16 48.67340 21.23865 755 ft 3 kts 262°
2026-05-07 20:17 48.67337 21.23856 756 ft 0 kts 240°
2026-05-07 20:17 48.67335 21.23851 756 ft 0 kts 228°
2026-05-07 20:17 48.67334 21.23851 756 ft 0 kts 228°